FW8759 Weather Reports


Display with metric or nautical units.
time (UTC)temp
F
wind
direction
speed
MPH
gust
MPH
rain 1hr
in
rain 24hr
in
rain mn
in
humidity
%
barometer
mb
20260901095336 69 335 1.0 1.0 0.00 0.00 0.00 99 1017.8
20260901094830 69 355 3.0 3.0 0.00 0.00 0.00 99 1017.4
20260901094325 69 320 0.0 0.0 0.00 0.00 0.00 99 1017.6
20260901093820 69 320 0.0 0.0 0.00 0.00 0.00 99 1017.8
20260901093319 69 320 0.0 0.0 0.00 0.00 0.00 99 1017.3
20260901092816 69 320 0.0 0.0 0.00 0.00 0.00 99 1017.3
20260901092311 69 320 0.0 0.0 0.00 0.00 0.00 99 1017.4
20260901091807 69 320 0.0 0.0 0.00 0.00 0.00 99 1017.6
20260901091306 69 320 0.0 0.0 0.00 0.00 0.00 99 1017.3
20260901090802 69 320 0.0 0.0 0.00 0.00 0.00 99 1017.2
20260901090257 70 320 0.0 0.0 0.00 0.00 0.00 99 1017.3
20260901085753 70 320 0.0 0.0 0.00 0.00 0.00 99 1017.2
20260901085247 70 320 0.0 0.0 0.00 0.00 0.00 99 1017.4
20260901084744 70 320 0.0 0.0 0.00 0.00 0.00 99 1017.4
20260901084240 70 320 0.0 0.0 0.00 0.00 0.00 99 1017.4
20260901083740 70 320 0.0 0.0 0.00 0.00 0.00 99 1017.2
20260901083239 71 320 0.0 0.0 0.00 0.00 0.00 99 1017.2
20260901082738 71 317 0.0 0.0 0.00 0.00 0.00 99 1017.4
20260901082233 71 317 0.0 0.0 0.00 0.00 0.00 99 1017.6
20260901081729 71 317 0.0 0.0 0.00 0.00 0.00 99 1017.4
20260901081229 71 317 0.0 0.0 0.00 0.00 0.00 99 1017.4
20260901080724 71 317 0.0 0.0 0.00 0.00 0.00 98 1017.1
20260901080223 71 317 0.0 0.0 0.00 0.00 0.00 98 1017.3
20260901075722 71 317 0.0 0.0 0.00 0.00 0.00 98 1017.1
20260901075218 71 317 0.0 0.0 0.00 0.00 0.00 97 1017.4
20260901074712 71 317 0.0 0.0 0.00 0.00 0.00 96 1017.2
20260901074208 72 318 0.0 0.0 0.00 0.00 0.00 97 1017.3
20260901073704 72 318 0.0 0.0 0.00 0.00 0.00 97 1017.2
20260901073159 72 318 0.0 0.0 0.00 0.00 0.00 97 1017.3
20260901072654 72 318 0.0 0.0 0.00 0.00 0.00 97 1017.3
20260901072148 72 318 0.0 0.0 0.00 0.00 0.00 97 1017.2
20260901071643 73 318 0.0 0.0 0.00 0.00 0.00 96 1017.6
20260901071143 72 318 0.0 0.0 0.00 0.00 0.00 95 1017.6
20260901070637 72 318 0.0 0.0 0.00 0.00 0.00 95 1017.6
20260901070133 72 319 0.0 0.0 0.00 0.00 0.00 96 1017.6
20260901065631 72 320 0.0 0.0 0.00 0.00 0.00 96 1017.7
20260901065126 73 315 0.0 0.0 0.00 0.00 0.00 96 1017.8
20260901064623 73 316 0.0 0.0 0.00 0.00 0.00 96 1017.6
20260901064120 73 317 0.0 0.0 0.00 0.00 0.00 97 1017.7
20260901063616 73 316 0.0 0.0 0.00 0.00 0.00 96 1017.7
20260901063112 73 317 0.0 0.0 0.00 0.00 0.00 96 1017.6
20260901062608 73 317 0.0 0.0 0.00 0.00 0.00 95 1017.7
20260901062103 73 327 1.0 1.0 0.00 0.00 0.00 95 1017.7
20260901061600 73 321 1.0 1.0 0.00 0.00 0.00 96 1017.7
20260901061054 73 333 2.0 2.0 0.00 0.00 0.00 96 1017.9
20260901060548 73 336 1.0 1.0 0.00 0.00 0.00 96 1017.8
20260901060044 73 325 0.0 1.0 0.00 0.00 0.00 96 1018.0
20260901055539 73 334 1.0 1.0 0.00 0.00 0.00 96 1017.9
20260901055036 73 330 0.0 0.0 0.00 0.00 0.00 96 1018.0
20260901054533 73 332 0.0 1.0 0.00 0.00 0.00 97 1017.8
20260901054028 73 332 0.0 1.0 0.00 0.00 0.00 97 1017.9
20260901053524 73 335 2.0 2.0 0.00 0.00 0.00 98 1018.0
20260901053020 73 325 1.0 1.0 0.00 0.00 0.00 99 1017.8
20260901052520 73 327 1.0 1.0 0.00 0.00 0.00 99 1018.0
20260901052020 73 320 0.0 0.0 0.00 0.00 0.00 99 1018.1
20260901051515 73 312 0.0 0.0 0.00 0.00 0.00 99 1018.1
20260901051014 73 312 0.0 0.0 0.00 0.00 0.00 99 1018.0
20260901050509 73 312 0.0 0.0 0.00 0.00 0.00 99 1017.8
20260901050004 73 312 0.0 0.0 0.00 0.00 0.00 99 1017.9
20260901045459 73 312 0.0 0.0 0.00 0.00 0.00 99 1018.2
20260901044954 73 312 0.0 0.0 0.00 0.00 0.00 99 1018.0
20260901044450 73 312 0.0 0.0 0.00 0.00 0.00 99 1018.1
20260901043945 73 312 0.0 0.0 0.00 0.00 0.00 99 1018.1
20260901043442 73 312 0.0 0.0 0.00 0.00 0.00 99 1018.2
20260901042942 73 312 0.0 0.0 0.00 0.00 0.00 99 1017.9
20260901042441 73 312 1.0 1.0 0.00 0.00 0.00 99 1017.9
20260901041936 74 321 0.0 0.0 0.00 0.00 0.00 98 1017.7
20260901041432 74 321 0.0 0.0 0.00 0.00 0.00 98 1017.8
20260901040931 74 321 0.0 0.0 0.00 0.00 0.00 97 1017.8
20260901040426 74 321 0.0 0.0 0.00 0.00 0.00 97 1017.9
20260901035925 74 321 0.0 0.0 0.00 0.00 0.00 97 1017.7
20260901035424 74 321 0.0 0.0 0.00 0.00 0.00 96 1017.8
20260901034923 75 321 0.0 0.0 0.00 0.00 0.00 96 1017.9
20260901034418 75 321 0.0 0.0 0.00 0.00 0.00 96 1017.9
20260901033913 75 321 0.0 0.0 0.00 0.00 0.00 95 1017.9
20260901033412 75 321 0.0 0.0 0.00 0.00 0.00 94 1017.9
20260901032910 76 321 0.0 0.0 0.00 0.00 0.00 93 1017.8
20260901032410 76 321 0.0 0.0 0.00 0.00 0.00 93 1017.8
20260901031905 76 321 0.0 0.0 0.00 0.00 0.00 92 1017.7
20260901031401 76 322 0.0 0.0 0.00 0.00 0.00 91 1017.8
20260901030900 76 322 2.0 2.0 0.00 0.00 0.00 91 1017.7
20260901030356 77 322 1.0 1.0 0.00 0.00 0.00 90 1017.9
20260901025855 76 323 2.0 2.0 0.00 0.00 0.00 90 1017.8
20260901025350 76 323 1.0 1.0 0.00 0.00 0.00 89 1018.0
20260901024845 77 324 1.0 1.0 0.00 0.00 0.00 90 1017.8
20260901024344 76 324 1.0 1.0 0.00 0.00 0.00 89 1017.8
20260901023842 76 326 1.0 1.0 0.00 0.00 0.00 91 1017.7
20260901023338 76 326 1.0 1.0 0.00 0.00 0.00 90 1018.0
20260901022833 76 326 1.0 1.0 0.00 0.00 0.00 92 1017.8
20260901022329 76 326 0.0 0.0 0.00 0.00 0.00 93 1017.9
20260901021824 76 326 0.0 0.0 0.00 0.00 0.00 93 1017.9
20260901021320 76 326 0.0 0.0 0.00 0.00 0.00 92 1017.8
20260901020814 77 326 0.0 0.0 0.00 0.00 0.00 91 1017.9
20260901020309 77 326 0.0 0.0 0.00 0.00 0.00 91 1017.6
20260901015804 77 326 0.0 0.0 0.00 0.00 0.00 90 1017.6
20260901015300 77 326 0.0 0.0 0.00 0.00 0.00 90 1017.2
20260901014759 77 326 0.0 0.0 0.00 0.00 0.00 88 1017.3
20260901014255 78 326 0.0 0.0 0.00 0.00 0.00 89 1017.7
20260901013751 78 326 0.0 0.0 0.00 0.00 0.00 88 1017.2
20260901013246 78 326 0.0 0.0 0.00 0.00 0.00 89 1017.1
20260901012741 78 326 0.0 0.0 0.00 0.00 0.00 89 1017.3
20260901012241 78 326 0.0 0.0 0.00 0.00 0.00 89 1017.0
20260901011737 78 326 0.0 0.0 0.00 0.00 0.00 89 1016.9
20260901011232 78 326 0.0 0.0 0.00 0.00 0.00 88 1016.9
20260901010726 78 326 0.0 0.0 0.00 0.00 0.00 88 1017.0
20260901010221 79 326 0.0 0.0 0.00 0.00 0.00 87 1017.1
20260901005720 79 326 0.0 0.0 0.00 0.00 0.00 87 1016.9
20260901005216 79 326 0.0 1.0 0.00 0.00 0.00 88 1016.8
20260901004715 79 326 0.0 0.0 0.00 0.00 0.00 86 1016.7
20260901004209 79 333 0.0 0.0 0.00 0.00 0.00 87 1016.8
20260901003703 79 333 0.0 0.0 0.00 0.00 0.00 86 1016.7
20260901003203 79 334 0.0 1.0 0.00 0.00 0.00 85 1016.7
20260901002657 79 334 1.0 1.0 0.00 0.00 0.00 85 1016.6
20260901002152 80 334 0.0 0.0 0.00 0.00 0.00 84 1016.8
20260901001648 80 334 0.0 0.0 0.00 0.00 0.00 83 1016.8
20260901001142 80 334 0.0 0.0 0.00 0.00 0.00 82 1016.8
20260901000638 80 334 0.0 0.0 0.00 0.00 0.00 82 1016.8
20260901000133 80 334 0.0 0.0 0.00 0.00 0.00 82 1016.7
20260831235626 81 334 0.0 0.0 0.00 0.00 0.00 82 1016.7
20260831235122 81 335 0.0 0.0 0.00 0.00 0.00 81 1016.7
20260831234621 81 335 0.0 0.0 0.00 0.00 0.00 81 1016.6
20260831234117 82 335 0.0 0.0 0.00 0.00 0.00 80 1016.5
20260831233612 82 335 0.0 0.0 0.00 0.00 0.00 79 1016.6
20260831233108 82 335 0.0 0.0 0.00 0.00 0.00 78 1016.5
20260831232603 82 335 0.0 0.0 0.00 0.00 0.00 77 1016.5
20260831232059 83 335 0.0 0.0 0.00 0.00 0.00 75 1016.4
20260831231555 83 335 0.0 0.0 0.00 0.00 0.00 74 1016.4
20260831231050 83 335 0.0 0.0 0.00 0.00 0.00 73 1016.4
20260831230545 83 333 0.0 0.0 0.00 0.00 0.00 71 1016.5
20260831230040 84 321 0.0 0.0 0.00 0.00 0.00 72 1016.6
20260831225535 84 321 0.0 0.0 0.00 0.00 0.00 72 1016.6
20260831225030 84 321 0.0 0.0 0.00 0.00 0.00 69 1016.6
20260831224525 85 322 0.0 0.0 0.00 0.00 0.00 68 1016.8
20260831224020 85 322 0.0 0.0 0.00 0.00 0.00 66 1016.7
20260831223515 86 322 0.0 0.0 0.00 0.00 0.00 65 1016.7
20260831223012 85 322 0.0 0.0 0.00 0.00 0.00 62 1016.7
20260831222508 86 320 0.0 0.0 0.00 0.00 0.00 65 1016.7
20260831222007 86 320 0.0 0.0 0.00 0.00 0.00 63 1016.8
20260831221503 86 320 0.0 0.0 0.00 0.00 0.00 63 1016.9
20260831220958 86 321 1.0 1.0 0.00 0.00 0.00 58 1017.0
20260831220453 87 314 0.0 0.0 0.00 0.00 0.00 63 1016.9
20260831215948 87 314 0.0 0.0 0.00 0.00 0.00 61 1017.0
20260831215444 87 314 0.0 0.0 0.00 0.00 0.00 55 1017.1
20260831214940 87 314 0.0 0.0 0.00 0.00 0.00 61 1017.1
20260831214437 87 314 0.0 0.0 0.00 0.00 0.00 60 1017.1
20260831213933 88 314 0.0 0.0 0.00 0.00 0.00 56 1017.0
20260831213429 87 316 0.0 0.0 0.00 0.00 0.00 54 1016.9
20260831212929 88 318 0.0 0.0 0.00 0.00 0.00 58 1017.1
20260831212425 88 327 0.0 0.0 0.00 0.00 0.00 59 1016.7
20260831211924 88 327 0.0 1.0 0.00 0.00 0.00 55 1016.9
20260831211420 88 312 0.0 0.0 0.00 0.00 0.00 61 1017.2
20260831210914 88 312 0.0 0.0 0.00 0.00 0.00 60 1017.1
20260831210409 88 313 0.0 1.0 0.00 0.00 0.00 57 1017.2
20260831205905 88 327 1.0 1.0 0.00 0.00 0.00 57 1017.3
20260831205400 88 306 0.0 0.0 0.00 0.00 0.00 58 1017.3
20260831204855 88 306 0.0 0.0 0.00 0.00 0.00 55 1017.4
20260831204354 88 313 0.0 0.0 0.00 0.00 0.00 58 1017.0
20260831203854 88 324 0.0 0.0 0.00 0.00 0.00 54 1017.4
20260831203348 88 324 0.0 0.0 0.00 0.00 0.00 56 1017.2
20260831202846 88 324 0.0 0.0 0.00 0.00 0.00 55 1017.4
20260831202336 88 339 0.0 0.0 0.00 0.00 0.00 59 1017.3
20260831201836 88 307 2.0 2.0 0.00 0.00 0.00 61 1017.4
20260831201334 89 305 1.0 1.0 0.00 0.00 0.00 57 1017.4
20260831200831 89 276 3.0 3.0 0.00 0.00 0.00 57 1017.6
20260831200326 89 328 0.0 0.0 0.00 0.00 0.00 58 1017.6
20260831195821 89 329 1.0 1.0 0.00 0.00 0.00 61 1017.8
20260831195317 89 326 1.0 2.0 0.00 0.00 0.00 58 1017.8
20260831194812 89 292 0.0 0.0 0.00 0.00 0.00 59 1018.0
20260831194307 89 292 0.0 0.0 0.00 0.00 0.00 56 1017.8
20260831193806 89 291 0.0 0.0 0.00 0.00 0.00 59 1017.9
20260831193302 89 294 0.0 0.0 0.00 0.00 0.00 59 1017.9
20260831192756 89 295 1.0 1.0 0.00 0.00 0.00 58 1017.8
20260831192252 89 327 2.0 2.0 0.00 0.00 0.00 59 1018.2
20260831191748 88 326 0.0 0.0 0.00 0.00 0.00 59 1017.9
20260831191244 89 345 3.0 3.0 0.00 0.00 0.00 58 1018.2
20260831190739 90 328 1.0 1.0 0.00 0.00 0.00 58 1018.1
20260831190238 91 307 1.0 1.0 0.00 0.00 0.00 57 1018.2
20260831185733 91 322 1.0 1.0 0.00 0.00 0.00 57 1018.1
20260831185229 92 288 0.0 0.0 0.00 0.00 0.00 56 1018.3
20260831184728 93 274 1.0 1.0 0.00 0.00 0.00 55 1018.4
20260831184224 93 260 0.0 0.0 0.00 0.00 0.00 59 1018.5
20260831183723 92 260 0.0 0.0 0.00 0.00 0.00 56 1018.6
20260831183218 89 254 0.0 0.0 0.00 0.00 0.00 61 1018.6
20260831182717 90 290 1.0 2.0 0.00 0.00 0.00 60 1018.7
20260831182212 89 297 1.0 1.0 0.00 0.00 0.00 62 1018.6
20260831181712 87 314 0.0 1.0 0.00 0.00 0.00 62 1018.9
20260831181208 87 324 2.0 2.0 0.00 0.00 0.00 62 1018.8
20260831180702 89 293 2.0 2.0 0.00 0.00 0.00 66 1018.7
20260831180158 89 256 0.0 0.0 0.00 0.00 0.00 63 1018.9
20260831175657 88 226 1.0 1.0 0.00 0.00 0.00 62 1018.8
20260831175154 88 237 1.0 2.0 0.00 0.00 0.00 64 1019.0
20260831174654 89 292 0.0 0.0 0.00 0.00 0.00 63 1018.9
20260831174149 90 255 0.0 1.0 0.00 0.00 0.00 64 1018.9
20260831173647 90 285 0.0 0.0 0.00 0.00 0.00 61 1018.8
20260831173143 91 292 1.0 1.0 0.00 0.00 0.00 60 1019.0
20260831172643 90 292 0.0 1.0 0.00 0.00 0.00 64 1018.9
20260831172138 89 284 0.0 0.0 0.00 0.00 0.00 61 1019.1
20260831171633 89 284 0.0 1.0 0.00 0.00 0.00 63 1019.1
20260831171131 90 284 0.0 0.0 0.00 0.00 0.00 63 1019.0
20260831170626 87 284 0.0 0.0 0.00 0.00 0.00 66 1019.4
20260831170124 84 286 0.0 0.0 0.00 0.00 0.00 69 1019.4
20260831165619 83 286 0.0 0.0 0.00 0.00 0.00 73 1019.6
20260831165115 84 287 1.0 1.0 0.00 0.00 0.00 76 1019.6
20260831164611 86 286 0.0 0.0 0.00 0.00 0.00 70 1019.6
20260831164106 89 286 0.0 0.0 0.00 0.00 0.00 66 1019.4
20260831163601 88 284 1.0 2.0 0.00 0.00 0.00 66 1019.5
20260831163057 89 291 0.0 1.0 0.00 0.00 0.00 66 1019.6
20260831162556 87 292 0.0 0.0 0.00 0.00 0.00 67 1019.8
20260831162054 87 299 2.0 2.0 0.00 0.00 0.00 69 1019.6
20260831161550 87 299 0.0 0.0 0.00 0.00 0.00 69 1019.6
20260831161047 86 300 1.0 1.0 0.00 0.00 0.00 70 1019.5
20260831160545 86 300 1.0 1.0 0.00 0.00 0.00 69 1019.3
20260831160041 86 312 1.0 1.0 0.00 0.00 0.00 71 1019.6
20260831155535 84 313 1.0 1.0 0.00 0.00 0.00 73 1019.8
20260831155031 83 319 1.0 2.0 0.00 0.00 0.00 75 1019.7
20260831154527 82 317 0.0 0.0 0.00 0.00 0.00 80 1020.1
20260831154026 82 319 1.0 1.0 0.00 0.00 0.00 80 1020.0
20260831153526 86 318 1.0 1.0 0.00 0.00 0.00 76 1020.1
20260831153023 85 319 0.0 0.0 0.00 0.00 0.00 74 1019.9
20260831152518 82 321 0.0 0.0 0.00 0.00 0.00 79 1020.1
20260831152014 81 323 0.0 0.0 0.00 0.00 0.00 84 1019.9
20260831151513 81 323 0.0 1.0 0.00 0.00 0.00 81 1020.0
20260831151013 81 327 0.0 1.0 0.00 0.00 0.00 84 1020.1
20260831150509 81 340 2.0 2.0 0.00 0.00 0.00 81 1020.1
20260831150004 81 300 1.0 2.0 0.00 0.00 0.00 83 1020.1
20260831145459 82 299 1.0 1.0 0.00 0.00 0.00 81 1020.0
20260831144955 82 298 1.0 1.0 0.00 0.00 0.00 81 1019.8
20260831144450 80 299 0.0 0.0 0.00 0.00 0.00 85 1019.8
20260831143946 80 300 0.0 0.0 0.00 0.00 0.00 84 1019.8
20260831143440 79 301 0.0 1.0 0.00 0.00 0.00 86 1019.8
20260831142935 78 313 2.0 2.0 0.00 0.00 0.00 88 1019.8
20260831142427 77 327 0.0 1.0 0.00 0.00 0.00 89 1019.7
20260831141926 77 335 0.0 0.0 0.00 0.00 0.00 88 1019.9
20260831141420 77 322 0.0 0.0 0.00 0.00 0.00 90 1019.9
20260831140915 77 322 0.0 0.0 0.00 0.00 0.00 90 1019.8
20260831140410 76 325 0.0 0.0 0.00 0.00 0.00 90 1019.8
20260831135909 76 308 0.0 0.0 0.00 0.00 0.00 90 1019.6
20260831135408 76 305 0.0 0.0 0.00 0.00 0.00 90 1019.6
20260831134904 76 306 0.0 0.0 0.00 0.00 0.00 90 1019.8
20260831134400 75 320 0.0 0.0 0.00 0.00 0.00 93 1019.7
20260831133859 75 320 0.0 0.0 0.00 0.00 0.00 94 1019.9
20260831133354 74 320 0.0 0.0 0.00 0.00 0.00 94 1019.6
20260831132849 74 330 0.0 0.0 0.00 0.00 0.00 94 1019.7
20260831132339 73 313 0.0 0.0 0.00 0.00 0.00 95 1019.7
20260831131838 73 315 0.0 0.0 0.00 0.00 0.00 96 1020.0
20260831131334 73 317 0.0 0.0 0.00 0.00 0.00 97 1019.8
20260831130829 72 317 0.0 0.0 0.00 0.00 0.00 98 1019.9
20260831130325 72 317 0.0 0.0 0.00 0.00 0.00 99 1019.7
20260831125824 71 317 0.0 0.0 0.00 0.00 0.00 99 1019.7
20260831125319 71 317 0.0 0.0 0.00 0.00 0.00 99 1019.7
20260831124819 70 317 0.0 0.0 0.00 0.00 0.00 99 1019.7
20260831124316 70 317 0.0 0.0 0.00 0.00 0.00 99 1019.8
20260831123815 70 318 0.0 0.0 0.00 0.00 0.00 99 1019.7
20260831123314 69 318 0.0 0.0 0.00 0.00 0.00 99 1019.7
20260831122809 69 318 0.0 0.0 0.00 0.00 0.00 99 1019.8
20260831122306 69 318 0.0 0.0 0.00 0.00 0.00 99 1019.5
20260831121804 68 318 0.0 0.0 0.00 0.00 0.00 99 1019.7
20260831121302 68 318 0.0 0.0 0.00 0.00 0.00 99 1019.5
20260831120756 68 319 0.0 0.0 0.00 0.00 0.00 99 1019.2
20260831120251 68 318 0.0 0.0 0.00 0.00 0.00 99 1019.4
20260831115746 68 318 0.0 0.0 0.00 0.00 0.00 99 1019.5
20260831115242 68 318 0.0 0.0 0.00 0.00 0.00 99 1019.4
20260831114741 68 318 0.0 0.0 0.00 0.00 0.00 99 1019.2
20260831114241 68 318 0.0 0.0 0.00 0.00 0.00 99 1019.4
20260831113736 68 318 0.0 0.0 0.00 0.00 0.00 99 1019.3
20260831113231 68 318 0.0 0.0 0.00 0.00 0.00 99 1019.1
20260831112730 68 318 0.0 0.0 0.00 0.00 0.00 99 1019.2
20260831112226 69 319 0.0 0.0 0.00 0.00 0.00 99 1019.2
20260831111721 69 320 0.0 0.0 0.00 0.00 0.00 99 1019.0
20260831111217 69 319 0.0 0.0 0.00 0.00 0.00 99 1019.1
20260831110712 69 319 0.0 0.0 0.00 0.00 0.00 99 1019.1
20260831110208 69 320 0.0 0.0 0.00 0.00 0.00 99 1018.8
20260831105706 69 320 0.0 0.0 0.00 0.00 0.00 99 1018.8
20260831105202 69 319 0.0 0.0 0.00 0.00 0.00 99 1018.9
20260831104656 69 320 0.0 0.0 0.00 0.00 0.00 99 1018.7
20260831104153 69 324 0.0 0.0 0.00 0.00 0.00 99 1018.5
20260831103648 69 332 0.0 0.0 0.00 0.00 0.00 99 1018.4
20260831103143 69 333 0.0 0.0 0.00 0.00 0.00 99 1018.4
20260831102643 69 333 0.0 0.0 0.00 0.00 0.00 99 1018.5
20260831102138 69 333 0.0 0.0 0.00 0.00 0.00 99 1018.5
20260831101633 69 333 0.0 0.0 0.00 0.00 0.00 99 1018.5
20260831101129 69 334 0.0 0.0 0.00 0.00 0.00 99 1018.6
20260831100625 69 334 0.0 0.0 0.00 0.00 0.00 99 1018.4
20260831100121 69 324 0.0 0.0 0.00 0.00 0.00 99 1018.7
20260831095619 69 328 0.0 0.0 0.00 0.00 0.00 99 1018.5